This demonstration page uses our WeatherBlox Daily Observations layout. Learn more.

Left ArrowRight Arrow

41.55636, -103.73856

Hourly Observations for March 13, 2017

Temp ( °F °C ) Dew Point ( °F °C ) Humidity (%) Winds ( mph kmh ) Pressure ( in mb ) Visibility ( mi km ) Precip ( " mm )
12:03 am 00:03 Mostly Cloudy 28 -2 21 -6 74 74 N 9 15 30.42 1030 10 16 0.00 0.00
12:53 am 00:53 Mostly Cloudy 26 -3.3 20 -6.7 78 78 NNE 8 13 30.31 1027 10 16 0.00 0.00
1:29 am 01:29 Cloudy 24 -4.4 19 -7.2 81 81 NE 9 15 30.45 1031 10 16 0.00 0.00
1:53 am 01:53 Cloudy 24 -4.4 19 -7.2 81 81 NNE 10 17 30.32 1027 10 16 0.00 0.00
2:53 am 02:53 Cloudy 23 -5 18 -7.8 81 81 NNE 8 13 30.32 1027 10 16 0.00 0.00
3:53 am 03:53 Mostly Clear 21 -6.1 16 -8.9 81 81 Calm 30.32 1027 10 16 0.00 0.00
4:53 am 04:53 Mostly Cloudy 19 -7.2 15 -9.4 84 84 SE 7 11 30.32 1027 10 16 0.00 0.00
5:38 am 05:38 Partly Cloudy 18 -8 14 -10 86 86 ESE 7 11 30.50 1033 10 16 0.00 0.00
5:53 am 05:53 Partly Cloudy 18 -7.8 14 -10 84 84 ESE 7 11 30.34 1027 10 16 0.00 0.00
5:59 am 05:59 Mostly Cloudy 19 -7.2 15 -9.4 84 84 SE 7 11 30.50 1033 10 16 0.00 0.00
6:53 am 06:53 Cloudy 20 -6.7 15 -9.4 81 81 SE 8 13 30.33 1027 10 16 0.00 0.00
7:53 am 07:53 Cloudy 21 -6.1 17 -8.3 85 85 SE 8 13 30.32 1027 10 16 0.00 0.00
8:53 am 08:53 Cloudy 22 -5.6 18 -7.8 85 85 SE 9 15 30.31 1027 10 16 0.00 0.00
9:53 am 09:53 Cloudy 24 -4.4 19 -7.2 81 81 ESE 9 15 30.30 1026 10 16 0.00 0.00
10:44 am 10:44 Mostly Cloudy 27 -3 19 -7 74 74 ESE 9 15 30.36 1028 10 16 0.00 0.00
10:53 am 10:53 Partly Cloudy 26 -3.3 19 -7.2 75 75 ESE 9 15 30.29 1026 10 16 0.00 0.00
11:53 am 11:53 Cloudy 31 -0.6 21 -6.1 67 67 SE 10 17 30.27 1025 10 16 0.00 0.00
12:53 pm 12:53 Cloudy 37 2.8 24 -4.4 59 59 SE 7 11 30.21 1023 10 16 0.00 0.00
1:53 pm 13:53 Cloudy 42 5.6 27 -2.8 55 55 VRB 5 7 30.15 1021 10 16 0.00 0.00
2:53 pm 14:53 Cloudy 44 6.7 27 -2.8 51 51 NE 7 11 30.13 1020 10 16 0.00 0.00
3:53 pm 15:53 Cloudy 45 7.2 27 -2.8 49 49 Calm 30.15 1021 10 16 0.00 0.00
4:53 pm 16:53 Cloudy 45 7.2 28 -2.2 52 52 SSE 8 13 30.13 1020 10 16 0.00 0.00
5:53 pm 17:53 Mostly Cloudy 46 7.8 28 -2.2 50 50 SSE 9 15 30.11 1020 10 16 0.00 0.00
6:53 pm 18:53 Mostly Sunny 41 5 27 -2.8 57 57 ESE 8 13 30.12 1020 10 16 0.00 0.00
7:53 pm 19:53 Cloudy 38 3.3 26 -3.3 62 62 E 6 9 30.13 1020 10 16 0.00 0.00
8:53 pm 20:53 Cloudy 38 3.3 27 -2.8 65 65 E 6 9 30.14 1021 10 16 0.00 0.00
9:53 pm 21:53 Cloudy 38 3.3 27 -2.8 65 65 E 7 11 30.14 1021 10 16 0.00 0.00
10:53 pm 22:53 Cloudy 37 2.8 26 -3.3 65 65 ESE 8 13 30.13 1020 10 16 0.00 0.00
11:53 pm 23:53 Mostly Cloudy 35 1.7 25 -3.9 67 67 E 8 13 30.11 1020 10 16 0.00 0.00

Powered by AerisWeather